WAT6254 TJSJ-TIST

Flight info

Callsign WAT6254
Flight time 0h 18m
Altitude 7000
Route SJU RTE2 STT
Aircraft YS11/M-SDFHY/C

Departure

Time 2026-04-25 12:26
Airport Luis Munoz Marin International Airport (TJSJ)

Arrival

Time 2026-04-25 12:44
Airport Cyril E. King Airport (TIST)
Time Latitude Longitude Altitude Speed Heading
2026-04-25 12:03 18.44075 -66.00211 -26 ft 0 kts 69°
2026-04-25 12:10 18.44074 -66.00211 -37 ft 0 kts 69°
2026-04-25 12:11 18.44075 -66.00211 -37 ft 0 kts 69°
2026-04-25 12:20 18.44076 -66.00208 -36 ft 1 kts 69°
2026-04-25 12:20 18.44086 -66.00185 -30 ft 7 kts 49°
2026-04-25 12:20 18.44151 -66.00187 -36 ft 11 kts 335°
2026-04-25 12:21 18.44206 -66.00226 -28 ft 10 kts 346°
2026-04-25 12:21 18.44242 -66.00287 -36 ft 10 kts 248°
2026-04-25 12:21 18.44222 -66.00333 -39 ft 6 kts 245°
2026-04-25 12:21 18.44202 -66.00379 -39 ft 10 kts 247°
2026-04-25 12:22 18.44144 -66.00524 -37 ft 22 kts 246°
2026-04-25 12:22 18.44100 -66.00632 -34 ft 12 kts 248°
2026-04-25 12:22 18.44071 -66.00705 -30 ft 11 kts 247°
2026-04-25 12:22 18.44033 -66.00801 -42 ft 14 kts 247°
2026-04-25 12:23 18.43996 -66.00894 -33 ft 14 kts 247°
2026-04-25 12:23 18.43957 -66.00989 -40 ft 15 kts 246°
2026-04-25 12:23 18.43914 -66.01095 -45 ft 16 kts 247°
2026-04-25 12:23 18.43873 -66.01196 -51 ft 14 kts 246°
2026-04-25 12:24 18.43836 -66.01288 -40 ft 13 kts 247°
2026-04-25 12:24 18.43806 -66.01364 -52 ft 10 kts 247°
2026-04-25 12:24 18.43772 -66.01444 -51 ft 13 kts 246°
2026-04-25 12:24 18.43759 -66.01525 -39 ft 17 kts 300°
2026-04-25 12:25 18.43876 -66.01497 -45 ft 44 kts 66°
2026-04-25 12:25 18.44097 -66.00943 -45 ft 109 kts 66°
2026-04-25 12:25 18.44429 -66.00117 54 ft 130 kts 68°
2026-04-25 12:25 18.44802 -65.99261 509 ft 125 kts 67°
2026-04-25 12:26 18.45168 -65.98444 966 ft 124 kts 68°
2026-04-25 12:26 18.45563 -65.97598 1266 ft 134 kts 66°
2026-04-25 12:26 18.46001 -65.96697 1593 ft 143 kts 66°
2026-04-25 12:26 18.46489 -65.95699 1746 ft 166 kts 68°
2026-04-25 12:27 18.46806 -65.94532 2058 ft 171 kts 88°
2026-04-25 12:27 18.46842 -65.93222 2203 ft 183 kts 96°
2026-04-25 12:27 18.46810 -65.91863 2459 ft 188 kts 96°
2026-04-25 12:27 18.46773 -65.90487 2791 ft 188 kts 96°
2026-04-25 12:28 18.46764 -65.89110 3176 ft 189 kts 92°
2026-04-25 12:28 18.46876 -65.87733 3593 ft 187 kts 89°
2026-04-25 12:28 18.46978 -65.86389 4056 ft 182 kts 93°
2026-04-25 12:28 18.46999 -65.85096 4543 ft 176 kts 94°
2026-04-25 12:29 18.47025 -65.83827 5040 ft 171 kts 93°
2026-04-25 12:29 18.47089 -65.82588 5530 ft 167 kts 91°
2026-04-25 12:29 18.47154 -65.81380 6035 ft 163 kts 92°
2026-04-25 12:29 18.47198 -65.80192 6510 ft 162 kts 94°
2026-04-25 12:30 18.47236 -65.79002 6953 ft 162 kts 92°
2026-04-25 12:30 18.47279 -65.77813 7402 ft 163 kts 92°
2026-04-25 12:30 18.47332 -65.76620 7865 ft 164 kts 91°
2026-04-25 12:30 18.47387 -65.75420 8328 ft 164 kts 91°
2026-04-25 12:31 18.47435 -65.74194 8695 ft 173 kts 92°
2026-04-25 12:31 18.47481 -65.72880 8950 ft 188 kts 90°
2026-04-25 12:31 18.47537 -65.71414 9008 ft 212 kts 90°
2026-04-25 12:31 18.47609 -65.69797 9019 ft 229 kts 90°
2026-04-25 12:32 18.47685 -65.68083 9022 ft 239 kts 90°
2026-04-25 12:32 18.47750 -65.66308 9012 ft 246 kts 90°
2026-04-25 12:32 18.47817 -65.64492 8998 ft 250 kts 89°
2026-04-25 12:32 18.47895 -65.62647 8992 ft 254 kts 89°
2026-04-25 12:33 18.47972 -65.60779 8976 ft 256 kts 90°
2026-04-25 12:33 18.48042 -65.58897 8983 ft 258 kts 90°
2026-04-25 12:33 18.48113 -65.57006 8992 ft 259 kts 90°
2026-04-25 12:33 18.48192 -65.55104 8986 ft 261 kts 90°
2026-04-25 12:34 18.48269 -65.53190 8975 ft 262 kts 90°
2026-04-25 12:34 18.48340 -65.51273 8981 ft 262 kts 90°
2026-04-25 12:34 18.48413 -65.49356 8979 ft 262 kts 90°
2026-04-25 12:34 18.48465 -65.48083 8974 ft 262 kts 90°
2026-04-25 12:35 18.48567 -65.45511 8985 ft 263 kts 90°
2026-04-25 12:35 18.48637 -65.43585 8986 ft 263 kts 90°
2026-04-25 12:35 18.48711 -65.41658 8985 ft 264 kts 89°
2026-04-25 12:35 18.48789 -65.39727 8976 ft 264 kts 90°
2026-04-25 12:36 18.48862 -65.37797 8982 ft 264 kts 90°
2026-04-25 12:36 18.48933 -65.35865 8986 ft 264 kts 90°
2026-04-25 12:36 18.49009 -65.33929 8986 ft 264 kts 90°
2026-04-25 12:36 18.49083 -65.32023 8985 ft 264 kts 90°
2026-04-25 12:37 18.49139 -65.30062 8984 ft 264 kts 94°
2026-04-25 12:37 18.48652 -65.28242 8974 ft 258 kts 124°
2026-04-25 12:37 18.47394 -65.26967 8982 ft 251 kts 155°
2026-04-25 12:37 18.45738 -65.26464 8996 ft 248 kts 173°
2026-04-25 12:38 18.44030 -65.26229 8995 ft 248 kts 175°
2026-04-25 12:38 18.42315 -65.26047 8995 ft 248 kts 176°
2026-04-25 12:38 18.40632 -65.25775 8922 ft 252 kts 167°
2026-04-25 12:38 18.38928 -65.25214 8652 ft 260 kts 162°
2026-04-25 12:39 18.37264 -65.24442 8388 ft 263 kts 155°
2026-04-25 12:39 18.35649 -65.23530 8107 ft 264 kts 149°
2026-04-25 12:39 18.34395 -65.22111 7575 ft 270 kts 122°
2026-04-25 12:39 18.33709 -65.20296 6687 ft 263 kts 108°
2026-04-25 12:40 18.33270 -65.18429 5397 ft 263 kts 106°
2026-04-25 12:40 18.32980 -65.16526 4167 ft 264 kts 96°
2026-04-25 12:40 18.33068 -65.14631 3347 ft 253 kts 85°
2026-04-25 12:40 18.33292 -65.12836 2523 ft 241 kts 89°
2026-04-25 12:41 18.33329 -65.11194 2232 ft 212 kts 94°
2026-04-25 12:41 18.33276 -65.09705 2064 ft 192 kts 96°
2026-04-25 12:41 18.33305 -65.08384 1856 ft 172 kts 90°
2026-04-25 12:41 18.33388 -65.07219 1643 ft 146 kts 90°
2026-04-25 12:42 18.33449 -65.06219 1360 ft 137 kts 94°
2026-04-25 12:42 18.33465 -65.05528 1210 ft 143 kts 94°
2026-04-25 12:42 18.33539 -65.04180 1047 ft 137 kts 92°
2026-04-25 12:42 18.33580 -65.03211 949 ft 129 kts 94°
2026-04-25 12:43 18.33566 -65.02238 746 ft 140 kts 94°
2026-04-25 12:43 18.33608 -65.01237 652 ft 126 kts 93°
2026-04-25 12:43 18.33651 -64.99344 238 ft 130 kts 91°
2026-04-25 12:44 18.33687 -64.98400 83 ft 130 kts 94°
2026-04-25 12:44 18.33719 -64.97576 30 ft 82 kts 87°
2026-04-25 12:44 18.33696 -64.97115 26 ft 6 kts 179°
2026-04-25 12:45 18.33674 -64.97118 27 ft 1 kts 190°
2026-04-25 12:45 18.33664 -64.97122 27 ft 5 kts 213°
2026-04-25 12:45 18.33603 -64.97152 27 ft 6 kts 192°
2026-04-25 12:46 18.33575 -64.97158 27 ft 4 kts 192°
2026-04-25 12:46 18.33569 -64.97160 27 ft 0 kts 192°